Погода в Ивашковке

Украина / Черниговская область     51°41′59″N   31°26′42″E
темп.,
°C
ветер,
м/с
пор.,
м/с
влажн.,
%
обл.,
%
осадки,
мм/ч
давл.,
гПа
погр.,
м
4 марта, чт
чт423:00−1з48880 0.0 1021209
02:00−1зюз49873 0.0 1018229
05:00−3юз410940 0.0 1015222
08:00−1юз511940 0.0 1012329
11:00+2юз510958 0.0 1009396
14:00+4зюз5119427 0.0 1007680
17:00+4з4129292 0.0 1006414
20:00+2сз4119796 0.6 1007616
5 марта, пт
пт523:00+1сз399291 0.0 1008461
02:00−1зсз369781 0.0 1009202
05:00−2сз369762 0.0 1010160
08:00−1с358781 0.0 1011277
11:00+1с337195 0.0 1013647
14:00+1с346597 0.0 10141059
17:00−1с2470100 0.0 1015125
20:00−3ссз2373100 0.0 101767
6 марта, сб
сб623:00−2ссз3974100 0.0 1018460
02:00−4ссз497091 0.0 1020488
05:00−5сз38660 0.0 1020405
08:00−3сз47598 0.0 1022512
11:00−1зсз586061 0.0 10221238
14:000ссз466480 0.4 10221085
17:00−1с356493 0.1 1022537
20:00−3зсз247247 0.1 1024129
7 марта, вс
вс723:00−3з487122 0.0 1024386
02:00−4зюз5106811 0.0 1022477
05:00−4юз7146142 0.0 1019656
08:00−2зюз9166571 0.0 10161037
11:00+1зюз101663100 0.0 10121383
14:00+2з101566100 0.0 10101373
17:00+2з71476100 0.0 10091201
20:000з7158297 0.0 1008961
8 марта, пн
пн823:000з9167998 0.0 10071200
02:00−1зсз6137599 0.6 10081217
05:00−3зсз5117091 0.0 10091007
08:00−3зсз696859 0.0 10111004
11:00−2зсз566198 0.0 10121078
14:00−1зсз465999 0.1 10131299
17:00−2зсз3568100 0.1 1012849
20:00−3ссз2381100 0.2 1014204